www.pogodaiklimat.ru
ПОГОДА в Аддеде
Время
(UTC), дата
07 29.11
08 29.11
09 29.11
10 29.11
11 29.11
12 29.11
13 29.11
14 29.11
15 29.11
16 29.11
17 29.11
18 29.11
19 29.11
20 29.11
21 29.11
22 29.11
23 29.11
00 30.11
01 30.11
02 30.11
03 30.11
04 30.11
05 30.11
06 30.11
07 30.11
08 30.11
09 30.11
10 30.11
11 30.11
12 30.11
13 30.11
14 30.11
15 30.11
16 30.11
17 30.11
18 30.11
19 30.11
20 30.11
21 30.11
22 30.11
23 30.11
00 1.12
01 1.12
02 1.12
03 1.12
04 1.12
05 1.12
06 1.12
07 1.12
08 1.12
09 1.12
10 1.12
11 1.12
12 1.12
13 1.12
14 1.12
15 1.12
16 1.12
17 1.12
18 1.12
19 1.12
20 1.12
21 1.12
22 1.12
23 1.12
00 2.12
01 2.12
02 2.12
03 2.12
04 2.12
05 2.12
06 2.12
07 2.12
08 2.12
09 2.12
10 2.12
11 2.12
12 2.12
13 2.12
14 2.12
15 2.12
16 2.12
17 2.12
18 2.12
19 2.12
20 2.12
21 2.12
22 2.12
23 2.12
00 3.12
01 3.12
02 3.12
03 3.12
04 3.12
05 3.12
06 3.12
07 3.12
08 3.12
09 3.12
10 3.12
11 3.12
12 3.12
13 3.12
14 3.12
15 3.12
16 3.12
17 3.12
18 3.12
19 3.12
20 3.12
21 3.12
22 3.12
23 3.12
00 4.12
01 4.12
02 4.12
03 4.12
04 4.12
05 4.12
06 4.12
07 4.12
08 4.12
09 4.12
11 4.12
12 4.12
13 4.12
14 4.12
15 4.12
16 4.12
17 4.12
18 4.12
19 4.12
20 4.12
21 4.12
22 4.12
23 4.12
00 5.12
01 5.12
02 5.12
03 5.12
04 5.12
05 5.12
06 5.12
07 5.12
08 5.12
09 5.12
10 5.12
11 5.12
12 5.12
13 5.12
14 5.12
15 5.12
16 5.12
17 5.12
18 5.12
19 5.12
20 5.12
21 5.12
22 5.12
23 5.12
00 6.12
01 6.12
02 6.12
03 6.12
05 6.12
06 6.12
07 6.12
Ветер
(напр.,м/с)
Видим. Явления Облачность Т
(С)
Тd
(С)
f
(%)
Тe
(С)
Тes
(С)
Комфортность P
(гПа)
Po
(гПа)
Тmin
(С)
Tmax
(С)
R
(мм)
R24
(мм)
S
(см)
СЗ 1
{4}
15 км н/о -6.3 -6.4 99 -9 -9 очень
холодно
990.7 923.9
С 2
{3}
9000 м в посл. час снег н/о -5.9 -6.3 97 -10 -10 очень
холодно
991.1 924.3
СЗ 3
{5}
12 км {снег} н/о -6.6 -7.2 95 -12 -12 очень
холодно
991.8 924.9
СЗ 3
{6}
14 км {снег} н/о -6.2 -6.3 99 -12 -12 очень
холодно
992.7 925.8
СЗ 3
{5}
11 км {снег, дымка} н/о -5.8 -6.0 98 -12 -12 очень
холодно
993.4 926.5
З 3
{6}
12 км {снег, дымка} н/о -5.9 -6.1 98 -12 -12 очень
холодно
993.9 927.0
З 2
{5}
17 км н/о -6.6 -7.0 97 -11 -11 очень
холодно
994.3 927.2
З 3
{6}
13 км н/о -5.8 -6.5 95 -12 -12 очень
холодно
994.3 927.4
СЗ 2
{5}
18 км н/о -5.3 -5.7 97 -10 -10 очень
холодно
994.6 927.7
З 1
{3}
10 км н/о -5.4 -5.6 98 -8 -8 очень
холодно
994.9 927.9
СЗ 2
{4}
2600 м слаб. снег н/о -4.7 -5.0 98 -9 -9 очень
холодно
995.1 928.3
З 3
{5}
700 м снег н/о -4.6 -4.6 100 -10 -10 очень
холодно
995.8 928.9 -6.8 -4.6 0.9
З 4
{10}
29 км в посл. час снег н/о -4.4 -4.4 100 -11 -11 очень
холодно
996.9 929.9 0.2
З 3
{11}
35 км {снег} н/о -4.4 -5.1 95 -10 -10 очень
холодно
998.2 931.2
З 3
{7}
9000 м слаб. ливневой снег н/о -4.3 -4.3 100 -10 -10 очень
холодно
998.9 931.8
З 3
{8}
28 км в посл. час снег {ливн. осадки} н/о -5.5 -7.2 88 -11 -11 очень
холодно
1000.5 933.1
СЗ 3
{8}
19 км {ливн. осадки, снег} н/о -6.4 -8.1 88 -12 -12 очень
холодно
1000.8 933.3
З 2
{7}
24 км {ливн. осадки, снег} н/о -6.5 -7.8 90 -11 -11 очень
холодно
1000.9 933.4
З 1
{5}
22 км н/о -6.3 -7.3 93 -9 -9 очень
холодно
1001.1 933.6
З 1
{5}
800 м снег {дождь} н/о -5.8 -6.1 98 -8 -8 очень
холодно
1000.8 933.4 0.5
З 3
{5}
1600 м слаб. снег {дождь} н/о -5.6 -5.7 99 -11 -11 очень
холодно
1000.9 933.5 0.3
З 3
{8}
13 км в посл. час снег {дождь} н/о -5.1 -5.1 100 -11 -11 очень
холодно
1001.3 934.0 1
СЗ 2
{7}
24 км {снег, дождь} н/о -6.6 -7.4 94 -11 -11 очень
холодно
1002.4 934.9
З 4
{9}
30 км в посл. час снег {ливн. осадки} н/о -5.9 -7.0 92 -13 -13 очень
холодно
1003.2 935.6 -6.7 -4.2
СЗ 4
{11}
28 км в посл. час снег {ливн. осадки} н/о -6.4 -7.8 90 -13 -13 очень
холодно
1003.9 936.3
З 4
{9}
21 км {ливн. осадки, снег} н/о -6.9 -8.1 91 -14 -14 очень
холодно
1004.6 936.8
З 3
{8}
6000 м слаб. снег н/о -6.6 -7.3 95 -12 -12 очень
холодно
1004.9 937.1 0.2
З 4
{10}
6000 м слаб. снег н/о -5.9 -6.6 95 -13 -13 очень
холодно
1005.1 937.4 0.1
З 4
{10}
400 м сильн. ливневой снег н/о -5.3 -5.6 98 -12 -12 очень
холодно
1005.6 937.9 0.6
З 5
{11}
9000 м слаб. ливневой снег н/о -5.0 -6.4 90 -12 -12 очень
холодно
1006.0 938.4
З 4
{9}
12 км {снег} н/о -6.0 -7.5 89 -13 -13 очень
холодно
1006.9 939.1
З 3
{9}
13 км в посл. час снег {ливн. осадки} н/о -6.2 -7.7 89 -12 -12 очень
холодно
1007.2 939.3
З 5
{10}
15 км {ливн. осадки, снег} н/о -6.0 -7.3 90 -13 -13 очень
холодно
1006.6 938.8
З 4
{12}
3300 м слаб. снег н/о -6.2 -7.5 90 -13 -13 очень
холодно
1006.6 938.8
З 3
{9}
18 км в посл. час снег {ливн. осадки} н/о -6.0 -6.9 93 -12 -12 очень
холодно
1006.3 938.5
З 4
{10}
18 км {ливн. осадки, снег} н/о -5.4 -6.7 91 -12 -12 очень
холодно
1005.4 937.7 -7.2 -4.9
З 4
{10}
3500 м слаб. снег н/о -5.2 -5.6 97 -12 -12 очень
холодно
1004.8 937.3
З 5
{11}
13 км слаб. снег н/о -4.6 -5.3 95 -12 -12 очень
холодно
1004.4 936.9 0.1
З 4
{13}
1300 м слаб. ливневой снег н/о -4.7 -5.0 98 -11 -11 очень
холодно
1003.9 936.4
З 6
{13}
5000 м слаб. ливневой снег н/о -4.5 -5.2 95 -12 -12 очень
холодно
1003.1 935.7
З 6
{13}
700 м ливневой снег н/о -4.5 -4.5 100 -12 -12 очень
холодно
1002.7 935.4 0.2
З 6
{16}
3900 м слаб. снег н/о -4.4 -4.4 100 -12 -12 очень
холодно
1002.0 934.7 0.1
З 6
{15}
11 км ливневой дождь {снег} н/о -3.9 -3.9 100 -12 -12 очень
холодно
1001.9 934.6
З 5
{14}
1500 м слаб. снег н/о -3.7 -3.7 100 -11 -11 очень
холодно
1001.1 934.0 0.1
З 4
{11}
400 м сильн. снег {ливн. осадки} н/о -3.6 -3.6 100 -10 -10 очень
холодно
1000.1 933.0 2
З 6
{16}
2900 м слаб. снег н/о -3.3 -3.3 100 -11 -11 очень
холодно
998.5 931.6 1
З 5
{11}
1000 м слаб. снег н/о -2.8 -2.8 100 -10 -10 очень
холодно
998.9 932.0 0.4
З 3
{10}
11 км в посл. час снег {ливн. осадки} н/о -4.0 -4.0 100 -10 -10 очень
холодно
999.9 932.8 -5.7 -2.4
З 4 12 км в посл. час снег {ливн. осадки} н/о -4.2 -4.2 100 -11 -11 очень
холодно
1000.6 933.4 0.1
З 3
{11}
11 км в посл. час снег {ливн. осадки} н/о -5.1 -5.1 100 -11 -11 очень
холодно
1001.3 934.0
СЗ 3
{9}
16 км {ливн. осадки, снег} н/о -5.0 -5.1 99 -11 -11 очень
холодно
1002.1 934.7
З 4
{9}
13 км {ливн. осадки, снег} н/о -5.4 -5.8 97 -12 -12 очень
холодно
1002.5 935.0
З 4
{9}
12 км {ливн. осадки, снег} н/о -5.8 -6.5 95 -12 -12 очень
холодно
1002.4 935.0
З 4
{7}
12 км {ливн. осадки, снег} н/о -5.5 -6.4 93 -12 -12 очень
холодно
1002.6 935.1
З 5
{12}
11 км слаб. снег н/о -5.2 -6.0 94 -13 -13 очень
холодно
1002.4 935.0
З 4
{10}
13 км в посл. час снег {ливн. осадки} н/о -5.0 -5.5 96 -12 -12 очень
холодно
1002.5 935.2
З 4
{10}
2700 м слаб. снег н/о -4.4 -4.4 100 -11 -11 очень
холодно
1002.7 935.3 0.1
З 4
{10}
7000 м слаб. снег н/о -4.1 -4.1 100 -11 -11 очень
холодно
1002.8 935.5 0.3
З 5
{11}
12 км слаб. ливневой снег н/о -3.9 -3.9 100 -11 -11 очень
холодно
1003.1 935.8
З 4
{11}
900 м слаб. ливневой снег н/о -3.8 -3.8 100 -10 -10 очень
холодно
1003.1 935.8 -6.1 -3.8 0.3
З 4
{12}
14 км ливневой дождь {снег} н/о -4.1 -4.1 100 -11 -11 очень
холодно
1003.3 936.0 0.5
З 5
{12}
4100 м слаб. ливневой снег н/о -4.0 -4.0 100 -11 -11 очень
холодно
1003.4 936.1
З 3
{12}
11 км слаб. ливневой снег н/о -3.9 -3.9 100 -10 -10 очень
холодно
1003.6 936.3 0.5
З 3
{9}
14 км {ливн. осадки, снег} н/о -4.3 -4.3 100 -10 -10 очень
холодно
1003.9 936.5
З 3
{8}
20 км в посл. час снег {ливн. осадки} н/о -4.3 -4.9 96 -10 -10 очень
холодно
1003.9 936.5
З 4
{9}
6000 м слаб. ливневой снег н/о -4.0 -4.4 97 -10 -10 очень
холодно
1003.9 936.5
З 5
{10}
100 м сильн. ливневой снег н/о -4.0 -4.0 100 -11 -11 очень
холодно
1003.9 936.5 0.9
З 4
{12}
200 м сильн. снег {ливн. осадки} н/о -3.8 -3.8 100 -10 -10 очень
холодно
1003.9 936.5 3
З 3
{9}
14 км в посл. час снег {ливн. осадки} н/о -4.1 -4.1 100 -10 -10 очень
холодно
1004.0 936.6 0.3
З 4
{9}
13 км слаб. ливневой снег н/о -4.2 -4.2 100 -11 -11 очень
холодно
1004.2 936.8 0.1
З 4
{9}
5000 м слаб. ливневой снег н/о -4.1 -4.1 100 -11 -11 очень
холодно
1004.2 936.8
З 4
{9}
6000 м слаб. ливневой снег н/о -4.4 -4.4 100 -11 -11 очень
холодно
1004.9 937.4 -4.4 -3.7 0.1
З 4
{9}
600 м ливневой снег н/о -4.4 -4.4 100 -11 -11 очень
холодно
1005.4 937.8 0.9
З 3
{8}
20 км в посл. час осадки {ливн. осадки} н/о -4.6 -4.6 100 -10 -10 очень
холодно
1005.6 938.0
З 2
{9}
22 км {ливн. осадки, снег} н/о -4.6 -5.2 96 -9 -9 очень
холодно
1006.2 938.7
З 2
{5}
19 км {ливн. осадки, снег} н/о -4.5 -5.1 96 -9 -9 очень
холодно
1006.8 939.2
З 4
{8}
14 км слаб. ливневой снег н/о -4.1 -5.0 93 -11 -11 очень
холодно
1006.7 939.2
З 5
{12}
15 км {ливн. осадки, снег} н/о -3.9 -4.7 94 -11 -11 очень
холодно
1006.9 939.4
З 5
{13}
16 км н/о -3.8 -4.5 95 -11 -11 очень
холодно
1007.7 940.1
З 5
{10}
13 км н/о -4.1 -5.1 93 -11 -11 очень
холодно
1008.3 940.6
З 5
{11}
13 км н/о -4.2 -5.0 94 -11 -11 очень
холодно
1008.9 941.1
З 5
{11}
18 км н/о -3.7 -4.4 95 -11 -11 очень
холодно
1008.9 941.3
З 4
{13}
15 км н/о -3.9 -5.0 92 -10 -10 очень
холодно
1009.4 941.6
З 4
{10}
18 км н/о -3.7 -5.0 91 -10 -10 очень
холодно
1009.8 942.1 -4.8 -3.6
З 5
{11}
18 км н/о -3.5 -4.3 94 -11 -11 очень
холодно
1010.1 942.4
З 3
{9}
12 км слаб. снег н/о -3.9 -5.0 92 -9 -9 очень
холодно
1010.3 942.5
З 3
{8}
19 км {снег} н/о -3.9 -4.9 93 -9 -9 очень
холодно
1010.4 942.6
З 3
{8}
18 км в посл. час снег {ливн. осадки} н/о -3.8 -4.2 97 -9 -9 очень
холодно
1010.3 942.5 0.1
З 4
{9}
22 км в посл. час снег {ливн. осадки} н/о -3.5 -4.4 93 -10 -10 очень
холодно
1010.3 942.5
З 3
{8}
19 км {ливн. осадки, снег} н/о -3.7 -4.1 97 -9 -9 очень
холодно
1010.0 942.2
З 2
{7}
8000 м слаб. переохл. морось (гололёд) н/о -3.7 -3.8 99 -8 -8 очень
холодно
1009.5 941.8
З 2
{6}
8000 м слаб. ливневой снег {дождь} н/о -3.5 -3.5 100 -8 -8 очень
холодно
1008.7 941.1
З 2
{5}
3800 м слаб. ливневой снег н/о -3.2 -3.2 100 -8 -8 очень
холодно
1007.7 940.1 0.1
З 1
{6}
6000 м слаб. снег н/о -2.7 -2.8 99 -5 -5 холодно 1006.4 939.0 0.1

{4}
9000 м слаб. снег н/о -2.3 -2.3 100 1005.3 938.0 0.1
В 1
{2}
6000 м слаб. снег н/о -2.0 -2.0 100 -4 -4 прохладно 1003.9 936.8 -4.4 -2.0 0.2
Ю 1
{4}
3300 м осадки н/о -1.5 -1.5 100 -4 -4 прохладно 1003.1 936.1 0.2
ЮВ 2
{3}
2900 м слаб. снег {осадки} н/о -1.1 -1.1 100 -5 -5 холодно 1002.1 935.2 0.2
В 2
{4}
3400 м слаб. снег {осадки} н/о -0.6 -0.6 100 -5 -5 холодно 1001.0 934.3 0.7
ЮЗ 2
{4}
4900 м слаб. дождь со снегом н/о +0.2 +0.1 99 -4 -4 прохладно 999.7 933.2 0.2
ЮЗ 2
{5}
3900 м слаб. дождь со снегом н/о +0.3 +0.3 100 -4 -4 прохладно 998.7 932.2 0.3
ЮЗ 1
{6}
3000 м слаб. дождь со снегом н/о +0.4 +0.4 100 -2 -2 по сезону 997.9 931.5 0.3
З 3
{7}
3100 м дождь со снегом н/о +0.3 +0.3 100 -5 -5 холодно 997.4 931.0 0.4
З 4
{10}
6000 м в посл. час дождь {морось} н/о +0.4 +0.4 100 -5 -5 холодно 997.0 930.7 0.1
З 4
{8}
6000 м слаб. ливневой дождь н/о +0.8 +0.8 100 -5 -5 холодно 996.8 930.5 0.2
З 5
{9}
16 км в посл. час дождь {ливн. осадки} н/о +1.5 +1.5 100 -4 -4 прохладно 996.9 930.7
СЗ 6
{12}
2800 м морось {ливн. осадки, дождь} н/о +2.0 +2.0 100 -4 -4 прохладно 997.4 931.2
СЗ 5
{12}
7000 м в посл. час дождь {ливн. осадки} н/о +2.4 +2.4 100 -3 -3 прохладно 997.6 931.5 -2.0 +2.4 0.1
СЗ 2
{10}
19 км {дождь} н/о +2.7 +2.7 100 -1 -1 по сезону 997.5 931.4
З 5
{11}
12 км слаб. ливневой дождь н/о +2.8 +2.8 100 -3 -3 прохладно 997.3 931.3
З 4
{10}
35 км слаб. дождь н/о +3.0 +3.0 100 -2 -2 по сезону 997.5 931.5
З 5
{11}
20 км слаб. дождь н/о +3.1 +3.1 100 -2 -2 по сезону 998.0 932.1 0.2
З 6
{14}
9000 м в посл. час дождь {ливн. осадки} н/о +3.1 +3.1 100 -3 -3 прохладно 998.1 932.1 0.2
З 8
{15}
9000 м дымка {ливн. осадки, дождь} н/о +3.1 +3.1 100 -4 -4 прохладно 998.5 932.5
З 8
{21}
13 км н/о +3.0 +3.0 100 -4 -4 прохладно 999.1 933.1
З 9
{19}
16 км слаб. дождь н/о +3.1 +3.1 100 -4 -4 прохладно 998.8 932.8
З 7
{21}
14 км слаб. ливневой дождь н/о +3.1 +3.1 100 -3 -3 прохладно 999.1 933.1 0.1
З 8
{17}
14 км слаб. ливневой дождь н/о +3.3 +3.3 100 -3 -3 прохладно 998.6 932.6
З 6
{18}
12 км слаб. дождь н/о +2.8 +2.8 100 -3 -3 прохладно 999.2 933.2 0.1
З 6
{14}
12 км в посл. час дождь {ливн. осадки} н/о +2.9 +2.9 100 -3 -3 прохладно 999.2 933.1 +2.4 +3.4 0.1
З 6
{13}
11 км в посл. час дождь {ливн. осадки} н/о +3.1 +3.1 100 -3 -3 прохладно 999.2 933.2
З 6
{13}
10 км {ливн. осадки, дождь} н/о +2.9 +2.9 100 -3 -3 прохладно 1000.0 933.9
З 6
{17}
11 км {ливн. осадки, дождь} н/о +2.8 +2.8 100 -3 -3 прохладно 1000.3 934.1
З 6
{12}
10 км {ливн. осадки, дождь} н/о +2.6 +2.6 100 -4 -4 прохладно 999.6 933.4
З 4
{12}
12 км {ливн. осадки, дождь} н/о +2.8 +2.8 100 -2 -2 по сезону 1000.0 933.8
З 4
{11}
7000 м дымка н/о +2.5 +2.5 100 -3 -3 прохладно 999.7 933.4
З 4
{11}
11 км н/о +2.8 +2.8 100 -2 -2 по сезону 998.9 932.8
СЗ 4
{9}
14 км {дымка} н/о +3.3 +3.3 100 -2 -2 по сезону 997.8 931.9
З 1
{5}
7000 м дымка н/о +3.0 +3.0 100 +1 +1 по сезону 997.1 931.1
З 1
{3}
18 км слаб. дождь н/о +2.7 +2.7 100 +1 +1 по сезону 996.3 930.3
В 1
{4}
23 км слаб. дождь н/о +2.2 +2.2 100 0 0 по сезону 995.7 929.7 +2.1 +3.3 0.1
ЮВ 1
{3}
12 км слаб. дождь н/о +2.6 +2.6 100 +1 +1 по сезону 994.5 928.6 0.1
В 1
{3}
7000 м слаб. ливневой дождь н/о +1.9 +1.9 100 -0 -0 по сезону 993.4 927.5
СВ 1
{3}
17 км слаб. дождь н/о +1.6 +1.6 100 -1 -1 по сезону 992.2 926.3 0.2
ЮВ 1
{4}
14 км слаб. ливневой дождь н/о +2.2 +2.2 100 0 0 по сезону 990.8 925.0 0.2
З 5
{10}
21 км слаб. дождь н/о +2.2 +2.2 100 -4 -4 прохладно 991.2 925.5 0.1
З 6
{11}
16 км слаб. ливневой дождь н/о +1.7 +1.7 100 -5 -5 холодно 990.9 925.1 0.1
З 6
{12}
50 км {дождь} н/о +1.3 +0.8 96 -5 -5 холодно 990.8 925.0
З 4
{13}
45 км {дождь} н/о +1.0 +0.3 95 -4 -4 прохладно 990.1 924.3
З 5
{11}
40 км {дождь} н/о +1.3 +0.3 93 -5 -5 холодно 989.2 923.4
З 5
{12}
50 км в посл. час снег {ливн. осадки} н/о +0.8 +0.6 99 -5 -5 холодно 988.9 923.2
З 3
{10}
50 км {ливн. осадки, снег} н/о +0.2 -1.1 91 -5 -5 холодно 987.7 922.0
ЮЗ 2
{7}
50 км {ливн. осадки, снег} н/о +1.3 -1.6 81 -2 -2 по сезону 986.7 921.1 +0.2 +3.9
Ю 2
{5}
45 км н/о +1.1 -1.8 81 -2 -2 по сезону 985.4 919.8
Ю 2
{5}
50 км н/о +0.8 -2.6 78 -3 -3 прохладно 984.8 919.3
ЮВ 2
{7}
50 км н/о +0.6 -3.5 74 -3 -3 прохладно 983.4 917.9
ЮЗ 3
{9}
50 км н/о +1.2 -3.7 70 -3 -3 прохладно 982.5 917.2
ЮЗ 3
{10}
50 км в посл. час снег {ливн. осадки} н/о +0.7 -3.0 76 -4 -4 прохладно 981.5 916.2 0.0
ЮЗ 4
{9}
50 км {ливн. осадки, снег} н/о +0.5 -3.1 77 -5 -5 холодно 981.0 915.7
З 5
{14}
1500 м слаб. снег н/о -0.8 -0.8 100 -7 -7 холодно 980.1 914.7 0.1
З 4
{11}
700 м слаб. снег н/о -1.2 -1.2 100 -7 -7 холодно 979.8 914.4 0.6
З 4
{10}
200 м сильн. снег н/о -1.7 -1.7 100 -8 -8 очень
холодно
979.8 914.3 2
З 4
{12}
14 км слаб. снег н/о -2.7 -2.7 100 -9 -9 очень
холодно
979.6 914.1 0.4
З 6
{12}
8000 м слаб. ливневой снег н/о -2.5 -2.5 100 -10 -10 очень
холодно
979.6 914.0
З 4
{10}
13 км {ливн. осадки, снег} н/о -2.6 -2.6 100 -9 -9 очень
холодно
979.6 914.1 -2.7 +1.5
З 4
{11}
600 м сильн. ливневой снег н/о -2.0 -2.0 100 -8 -8 очень
холодно
980.0 914.5 0.5
З 5
{11}
2200 м слаб. ливневой снег н/о -1.9 -1.9 100 -9 -9 очень
холодно
980.1 914.6 0.4
З 3
{10}
12 км в посл. час снег {ливн. осадки} н/о -2.2 -2.2 100 -8 -8 очень
холодно
980.5 915.0 0.1
З 3
{9}
15 км в посл. час снег {ливн. осадки} н/о -2.0 -2.0 100 -7 -7 холодно 980.3 914.8 0.1
З 2
{8}
12 км {ливн. осадки, снег} н/о -2.3 -2.3 100 -7 -7 холодно 980.2 914.6
З 2
{5}
13 км {ливн. осадки, снег} н/о -2.1 -2.1 100 -6 -6 холодно 979.9 914.3
ЮВ 1
{6}
11 км н/о -2.4 -2.4 100 -5 -5 холодно 979.5 914.0
З 1
{7}
11 км н/о -1.9 -1.9 100 -4 -4 прохладно 979.4 914.0
ЮВ 1
{2}
15 км н/о -3.8 -3.8 100 -6 -6 холодно 979.3 913.6
З 2
{6}
28 км н/о -1.6 -1.6 100 -6 -6 холодно 978.7 913.3
ЮЗ 1
{3}
45 км н/о -1.5 -2.2 95 -4 -4 прохладно 978.8 913.4 -4.2 -1.2
СЗ 1
{4}
50 км н/о -2.0 -2.0 100 -4 -4 прохладно 979.5 914.0
Местоположение метеостанции Аддеде (Швеция): широта 64.50 долгота 14.22 высота над уровнем моря 555 м.
В архиве по умолчанию представлена погода в Аддеде за последнюю неделю. Архивные данные за месяц целиком и за предыдущие месяцы, начиная с января 2011 года, Вы можете получить, выбрав интересующий диапазон дат из раскрывающегося списка и нажав кнопку "Найти!".
*Определитесь, кто Вы:
Внимание! Время в таблицах - всемирное. Для получения местного времени необходимо прибавить поправку, которая равна 1 ч.
Смотрите также архив погоды в соседних городах и на ближайших метеорологических станциях:
Партнеры нашего сайта:      
Пояснения к столбцам:
  • Ветер - указаны скорость ветра в м/с - средняя за 10 мин, порывы в срок и между сроками (в фигурных скобках) и направление, откуда дует ветер: С - северный,
  • СВ - северо-восточный, В - восточный, ЮВ - юго-восточный, Ю - южный, ЮЗ - юго-западный, З - западный, СЗ - северо-западный.
  • Видимость - горизонтальная дальность видимости в метрах или километрах. При видимости от 1 до 10 км при отсутствии осадков обычно наблюдается дымка, при ухудшении видимости до 1 км и менее - туман. В сухую погоду видимость может ухудшаться дымом, пылью или мглою.
  • Явления - указаны атмосферные явления, наблюдавшиеся в срок или в последний час перед сроком; фигурными скобками обозначены явления, наблюдавшиеся между сроками (за 1-3 часа до срока); квадратными скобками обозначены град или гололедные отложения с указанием их диаметра в мм.
  • Облачность - указаны через наклонную черту общая и нижняя облачность в баллах и высота нижней границы облаков в метрах; квадратными скобками обозначены формы облаков: Ci - перистые, Cs - перисто-слоистые, Cc - перисто-кучевые, Ac - высококучевые, As - высокослоистые, Sc - слоисто-кучевые, Ns - слоисто-дождевые, Cu - кучевые, Cb - кучево-дождевые. Подробнее классификацию облаков см. в Атласе облаков (PDF).
  • T - Температура воздуха - температура, измеренная на высоте 2 м над землей.
  • Td - Температура точки росы - температура, при понижении до которой содержащийся в воздухе водяной пар достигнет насыщения.
  • f - Относительная влажность воздуха - влажноcть воздуха, измеренная на высоте 2 м над землей.
  • Te - Эффективная температура - температура, которую ощущает одетый по сезону человек в тени. Характеристика душности погоды. При расчете учитывается влияние влажности воздуха и скорости ветра на теплоощущения человека.
  • Tes - Эффективная температура на солнце - температура, которую ощущает человек, с поправкой на солнечный нагрев. Характеристика знойности погоды. Зависит от высоты солнца над горизонтом, облачности и скорости ветра. Ночью, в пасмурную погоду, а также при ветре 12 м/с и более поправка равна нулю.
  • P - Атмосферное давление - приведенное к уровню моря атмосферное давление.
  • Po - Атмосферное давление - измеренное на уровне метеостанции атмосферное давление.
  • Tmin - Минимальная температура - минимум температуры воздуха на высоте 2 м над землей.
  • Tmax - Максимальная температура - максимум температуры воздуха на высоте 2 м над землей.
  • R - Количество осадков - Количество выпавших осадков за период времени, мм. При наведении курсора мыши на число - период времени, за который выпало указанное количество осадков.
  • R24 - Количество осадков - Количество выпавших осадков за 24 часа, мм.
  • S - Снежный покров - Высота снежного покрова, см. При наведении курсора мыши на число - состояние снежного покрова и степень покрытия местности в баллах.